FENGYUN 1C DEB, 32362

Orbit data source: Space-Track

FENGYUN 1C DEB, 32362 is space debris in SSO originally from a launch on Mon, 10 May 1999 UTC launched from the Taiyaun Space Center, China (TSC). Fengyun 1C debris stems from the Chinese weather satellite Fengyun-1C, which was intentionally destroyed by a Chinese anti-satellite missile in 2007. This event dramatically increased the amount of space debris, with thousands of trackable fragments posing hazards to satellites and human spaceflight. The Fengyun 1C debris cloud has become a focal point in discussions about space sustainability and the need for international regulations to prevent the creation of new debris.

Loading next visibility...
Identifier
32362, 1999-025CZF
Orbit
SSO
Country
Flag of CNCN / PRC
Related business
Manufacturer
Unknown
Mission
Spacecraft
Bus & Motor
Unknown
Mass
Unknown
Launch date (UTC)
1999-05-10 (27 years ago)
Launch vehicle
Unknown
Launch site
Taiyaun Space Center, China (TSC)
Object type
Payload
Rocket body
Debris
Shape & HBR
Unknown shape, 0.1 m
Radar Cross Section
Medium (>0.1 m² and <1 m²)

Expand to show TLE details & history
Last TLE update: 1 day ago

TLE from 1 day ago
0 FENGYUN 1C DEB
1 32362U 99025CZF 26206.22702226  .00002641  00000-0  25120-2 0  9995
2 32362  99.8449 186.1464 0273205  74.2682 288.8413 13.66326419941941
Epoch: 2026-07-25T05:26Z
TLE epoch observation values (Epoch: 2026-07-25T05:26:54.723Z)
Latitude
-0.00009°
Longitude
161.47607°
Altitude
955.377 km
Speed
7.404 km/s
True Right ascension
12h 24m 35s
True Declination
0° 00' 00"
Sunlit
Object was in daylight at epoch
Visualization orbit readout
Latitude
Unknown
Longitude
Unknown
Altitude
Unknown
Speed
Unknown
Apparent Right ascension
Unknown
Apparent Declination
Unknown
Sunlit
N/A
Visualization observer readout
Local Sidereal Time
23:26:06
Azimuth
Unknown
Elevation
Unknown
Doppler factor
Unknown
Orbital elements
Apogee altitude
1,211.923 km
Perigee altitude
808.224 km
Semi-major axis
7,388.21 km
Eccentricity
0.02732
Inclination
99.8449°
RAAN
186.1464°
Arg. of periapsis
74.2682°
True anomaly
285.84669°
Mean anomaly
288.8413°
Eccentric anomaly
287.34715°
Mean motion
3.4177 °/min
Orbital period
105.33 mins
BSTAR
0.002512
Loading maneuver chart data...
Computing Atmospheric mass density...

Documentation

Showing up to 5 results
|